Location: Ammerl�gen
(47.2167°N, 9.6000°E)
Time: 06:12:01
(UTC+00:00)

ISS - Pass Details

Date: 04 October 2021
Orbit: 417 x 423 km, 51.6° (Epoch: 27 October)

Event Time Altitude Azimuth Distance (km) Brightness Sun altitude
Rises 19:09:09 0° 283° (WNW) 2,365 1.5 -23.3°
Reaches altitude 10° 19:12:13 10° 253° (WSW) 1,497 -0.3 -23.8°
Maximum altitude 19:13:41 12° 226° (SW) 1,357 -0.9 -24.0°
Enters shadow 19:14:04 12° 219° (SW) 1,366 -1.0 -24.1°
